User: anonymous   Login
Location: Unspecified
(0.0000°N, 0.0000°E)
Time: 17:06:06
(UTC+00:00)
Language:

COSMOS-2414 - Orbit

View from above orbital plane
View from above orbital plane
View from above satellite
View from above satellite

Ground track
Ground track

The orbit data is extracted from the following two-line orbital elements,

1 28521U 05002A   24109.52503457  .00000182  00000-0  13887-3 0  9993
2 28521  82.9459 280.8404 0041406  62.0367 298.4978 13.87762259974627
Epoch (UTC): 18 April 2024 12:36:02
Eccentricity: 0.0041406
inclination: 82.9459°
perigee height: 906 km
apogee height: 967 km
right ascension of ascending node: 280.8404°
argument of perigee: 62.0367°
revolutions per day: 13.87762259
mean anomaly at epoch: 298.4978°
orbit number at epoch: 97462

The dashed part of the orbit path shows where the satellite is in the earth's shadow,  

DLR